GW5170 Weather Reports


time (UTC)temp
F
wind
direction
speed
knots
gust
knots
rain 1hr
in
rain 24hr
in
rain mn
in
humidity
%
barometer
mb
20260506084817 37 337 0.9 0.9 0.00 0.00 0.00 83 1014.2
20260506084314 37 337 0.9 0.9 0.00 0.00 0.00 85 1014.4
20260506083810 36 337 0.0 0.0 0.00 0.00 0.00 85 1014.3
20260506083308 37 337 0.0 0.0 0.00 0.00 0.00 84 1014.3
20260506082806 37 337 0.0 0.0 0.00 0.00 0.00 84 1014.5
20260506082304 37 337 0.9 0.9 0.00 0.00 0.00 84 1014.2
20260506081758 38 337 0.9 0.9 0.00 0.00 0.00 85 1014.3
20260506081256 38 335 0.9 0.9 0.00 0.00 0.00 85 1014.3
20260506080754 38 334 0.0 0.9 0.00 0.00 0.00 84 1014.4
20260506080250 38 334 0.0 0.9 0.00 0.00 0.00 83 1014.3
20260506073234 39 333 0.0 0.0 0.00 0.00 0.00 81 1014.0
20260506072731 39 332 0.0 0.0 0.00 0.00 0.00 81 1014.0
20260506072228 39 332 0.0 0.0 0.00 0.00 0.00 80 1013.9
20260506071726 39 333 0.0 0.0 0.00 0.00 0.00 80 1013.9
20260506071224 39 333 0.0 0.0 0.00 0.00 0.00 79 1013.6
20260506070720 39 333 0.0 0.9 0.00 0.00 0.00 79 1013.5
20260506070217 40 332 0.0 0.0 0.00 0.00 0.00 78 1013.4
20260506062154 42 336 0.0 0.0 0.00 0.00 0.00 70 1013.4
20260506061650 42 330 0.9 0.9 0.00 0.00 0.00 68 1013.5
20260506061148 43 324 0.9 0.9 0.00 0.00 0.00 68 1013.5
20260506060646 43 334 0.0 0.9 0.00 0.00 0.00 67 1013.2
20260506060143 43 334 0.0 0.9 0.00 0.00 0.00 65 1013.4
20260506051115 46 329 0.0 0.9 0.00 0.00 0.00 54 1013.3
20260506050613 47 326 0.9 0.9 0.00 0.00 0.00 53 1013.3
20260506050110 47 325 1.7 1.7 0.00 0.00 0.00 53 1013.2
20260506045103 47 328 0.9 0.9 0.00 0.00 0.00 53 1013.0
20260506044601 48 332 1.7 1.7 0.00 0.00 0.00 52 1013.1
20260506044058 48 337 0.9 0.9 0.00 0.00 0.00 52 1012.9
20260506043555 48 319 0.9 1.7 0.00 0.00 0.00 51 1012.8
20260506043053 48 341 1.7 1.7 0.00 0.00 0.00 51 1012.8
20260506042552 48 351 0.9 0.9 0.00 0.00 0.00 51 1012.8
20260506042049 48 359 1.7 2.6 0.00 0.00 0.00 51 1013.0
20260506041548 48 23 1.7 1.7 0.00 0.00 0.00 51 1013.1
20260506041044 48 350 1.7 2.6 0.00 0.00 0.00 51 1012.9
20260506040542 49 353 0.9 0.9 0.00 0.00 0.00 51 1013.1
20260506040038 49 20 1.7 1.7 0.00 0.00 0.00 51 1013.1
20260506035535 49 344 1.7 1.7 0.00 0.00 0.00 50 1013.0
20260506035032 49 325 0.9 0.9 0.00 0.00 0.00 49 1013.2
20260506034529 49 325 1.7 2.6 0.00 0.00 0.00 49 1012.9
20260506034026 49 330 1.7 2.6 0.00 0.00 0.00 50 1012.9
20260506033523 49 358 0.9 0.9 0.00 0.00 0.00 49 1012.9
20260506033021 50 334 0.9 1.7 0.00 0.00 0.00 49 1012.7
20260506032518 50 336 2.6 3.5 0.00 0.00 0.00 48 1012.8
20260506032014 50 331 0.9 1.7 0.00 0.00 0.00 48 1012.6
20260506031512 50 345 0.0 0.9 0.00 0.00 0.00 47 1012.7
20260506031009 50 322 1.7 1.7 0.00 0.00 0.00 47 1012.6
20260506030507 50 347 1.7 2.6 0.00 0.00 0.00 47 1012.6
20260506030004 50 19 0.9 0.9 0.00 0.00 0.00 47 1012.5
20260506025500 51 345 0.9 0.9 0.00 0.00 0.00 46 1012.4
20260506024957 51 18 0.9 0.9 0.00 0.00 0.00 46 1012.4
20260506024454 51 357 1.7 2.6 0.00 0.00 0.00 45 1012.3
20260506023949 51 344 1.7 1.7 0.00 0.00 0.00 45 1012.1
20260506023447 51 317 4.3 6.1 0.00 0.00 0.00 45 1012.2
20260506022943 51 345 1.7 2.6 0.00 0.00 0.00 45 1011.9
20260506022441 51 12 0.9 1.7 0.00 0.00 0.00 45 1012.0
20260506021939 52 347 1.7 1.7 0.00 0.00 0.00 45 1011.7
20260506021436 52 351 1.7 1.7 0.00 0.00 0.00 44 1011.7
20260506020933 52 352 2.6 2.6 0.00 0.00 0.00 43 1011.6
20260506020431 52 353 2.6 3.5 0.00 0.00 0.00 43 1011.6
20260506015927 52 19 3.5 3.5 0.00 0.00 0.00 43 1011.4
20260506015425 53 356 1.7 1.7 0.00 0.00 0.00 43 1011.2
20260506014922 53 11 3.5 3.5 0.00 0.00 0.00 43 1011.1
20260506014419 53 334 1.7 1.7 0.00 0.00 0.00 43 1011.1
20260506013915 53 345 1.7 1.7 0.00 0.00 0.00 42 1011.0
20260506013414 53 11 1.7 1.7 0.00 0.00 0.00 42 1010.9
20260506012909 53 335 0.9 1.7 0.00 0.00 0.00 42 1010.8
20260506012406 53 352 1.7 1.7 0.00 0.00 0.00 41 1010.8
20260506011903 53 14 1.7 2.6 0.00 0.00 0.00 41 1010.8
20260506011400 54 355 1.7 1.7 0.00 0.00 0.00 41 1010.6
20260506010857 54 355 0.9 0.9 0.00 0.00 0.00 40 1010.9
20260506010355 54 326 0.9 1.7 0.00 0.00 0.00 40 1010.7
20260506005852 54 328 0.9 0.9 0.00 0.00 0.00 39 1010.8
20260506005349 55 5 3.5 3.5 0.00 0.00 0.00 38 1010.6
20260506004844 55 8 4.3 6.1 0.00 0.00 0.00 38 1010.4
20260506004343 55 341 5.2 7.8 0.00 0.00 0.00 38 1010.4
20260506003838 55 346 5.2 6.1 0.00 0.00 0.00 38 1010.2
20260506003335 56 350 7.0 8.7 0.00 0.00 0.00 37 1010.3
20260506002831 56 345 4.3 7.0 0.00 0.00 0.00 37 1010.2
20260506002328 57 298 3.5 5.2 0.00 0.00 0.00 36 1009.8
20260506001823 57 331 2.6 2.6 0.00 0.00 0.00 36 1009.9
20260506001321 57 346 1.7 2.6 0.00 0.00 0.00 35 1010.1
20260506000818 57 299 3.5 3.5 0.00 0.00 0.00 35 1010.0
20260506000316 57 298 5.2 6.1 0.00 0.00 0.00 34 1010.0
20260505235812 58 357 3.5 5.2 0.00 0.00 0.00 34 1009.9
20260505235310 58 320 4.3 5.2 0.00 0.00 0.00 34 1009.8
20260505234806 58 260 1.7 2.6 0.00 0.00 0.00 33 1009.6
20260505234304 58 340 3.5 3.5 0.00 0.00 0.00 33 1009.7
20260505233801 58 318 3.5 3.5 0.00 0.00 0.00 33 1009.6
20260505233259 59 324 3.5 5.2 0.00 0.00 0.00 34 1009.7
20260505232755 58 295 3.5 5.2 0.00 0.00 0.00 34 1009.9
20260505232253 58 355 3.5 5.2 0.00 0.00 0.00 33 1009.7
20260505231749 58 336 3.5 5.2 0.00 0.00 0.00 33 1009.6
20260505231248 58 301 3.5 3.5 0.00 0.00 0.00 33 1009.8
20260505230746 58 323 5.2 7.0 0.00 0.00 0.00 34 1009.8
20260505230242 58 349 3.5 3.5 0.00 0.00 0.00 33 1009.9
20260505225739 58 307 5.2 6.1 0.00 0.00 0.00 34 1009.9
20260505225236 58 327 2.6 3.5 0.00 0.00 0.00 34 1009.8
20260505224731 58 334 2.6 2.6 0.00 0.00 0.00 33 1010.0
20260505224229 58 278 2.6 3.5 0.00 0.00 0.00 33 1009.8
20260505223727 58 279 2.6 3.5 0.00 0.00 0.00 33 1010.0
20260505223223 58 307 5.2 6.1 0.00 0.00 0.00 32 1010.0
20260505222719 58 309 1.7 2.6 0.00 0.00 0.00 32 1010.1
20260505222215 58 274 2.6 3.5 0.00 0.00 0.00 32 1010.0
20260505221713 58 347 2.6 2.6 0.00 0.00 0.00 32 1010.1
20260505221209 58 293 5.2 8.7 0.00 0.00 0.00 31 1010.2
20260505220706 58 313 6.1 7.0 0.00 0.00 0.00 32 1010.1
20260505220204 58 254 4.3 5.2 0.00 0.00 0.00 32 1010.3
20260505215701 58 321 3.5 5.2 0.00 0.00 0.00 32 1010.3
20260505215159 58 323 2.6 2.6 0.00 0.00 0.00 31 1010.3
20260505214657 58 355 1.7 2.6 0.00 0.00 0.00 31 1010.2
20260505214154 58 337 2.6 3.5 0.00 0.00 0.00 31 1010.3
20260505213651 58 293 5.2 6.1 0.00 0.00 0.00 32 1010.3
20260505213148 57 324 7.0 8.7 0.00 0.00 0.00 31 1010.4
20260505212644 58 345 5.2 7.8 0.00 0.00 0.00 32 1010.3
20260505212142 58 344 7.0 7.8 0.00 0.00 0.00 32 1010.6
20260505211638 58 328 6.1 7.0 0.00 0.00 0.00 32 1010.6
20260505211136 57 320 5.2 6.1 0.00 0.00 0.00 32 1010.5
20260505210632 58 292 7.0 9.6 0.00 0.00 0.00 33 1010.4
20260505210129 58 349 5.2 7.0 0.00 0.00 0.00 33 1010.4
20260505205626 58 336 7.0 7.8 0.00 0.00 0.00 32 1010.6
20260505205125 57 281 4.3 6.1 0.00 0.00 0.00 32 1010.7
20260505204621 59 311 4.3 6.1 0.00 0.00 0.00 31 1010.5
20260505204119 58 340 1.7 1.7 0.00 0.00 0.00 32 1010.4
20260505203615 58 303 7.8 11.3 0.00 0.00 0.00 31 1010.4
20260505203113 59 268 7.8 11.3 0.00 0.00 0.00 31 1010.5
20260505202608 59 313 4.3 7.8 0.00 0.00 0.00 31 1010.6
20260505202104 58 328 1.7 2.6 0.00 0.00 0.00 31 1010.8
20260505201601 58 340 6.1 7.8 0.00 0.00 0.00 32 1010.6
20260505201059 59 214 3.5 3.5 0.00 0.00 0.00 30 1010.9
20260505200557 59 330 6.1 7.0 0.00 0.00 0.00 31 1010.9
20260505200053 58 311 2.6 3.5 0.00 0.00 0.00 31 1010.9
20260505195549 57 312 3.5 3.5 0.00 0.00 0.00 31 1010.9
20260505195047 58 351 2.6 3.5 0.00 0.00 0.00 32 1011.0
20260505194544 57 318 8.7 9.6 0.00 0.00 0.00 32 1011.0
20260505194039 58 14 7.8 9.6 0.00 0.00 0.00 31 1011.1
20260505193537 57 349 7.8 9.6 0.00 0.00 0.00 33 1011.2
20260505193034 56 321 4.3 7.0 0.00 0.00 0.00 33 1011.4
20260505192532 56 333 5.2 7.8 0.00 0.00 0.00 33 1011.5
20260505192030 57 269 7.8 11.3 0.00 0.00 0.00 33 1011.7
20260505191528 57 304 1.7 2.6 0.00 0.00 0.00 33 1011.7
20260505191026 56 303 3.5 6.1 0.00 0.00 0.00 32 1011.9
20260505190520 57 259 6.1 7.8 0.00 0.00 0.00 32 1011.8
20260505190016 57 282 2.6 2.6 0.00 0.00 0.00 32 1011.9
20260505185513 57 336 3.5 6.1 0.00 0.00 0.00 33 1011.9
20260505185009 56 288 6.1 7.8 0.00 0.00 0.00 33 1011.8
20260505184506 57 239 5.2 7.8 0.00 0.00 0.00 31 1012.0
20260505184003 56 290 7.8 9.6 0.00 0.00 0.00 32 1012.2
20260505183500 56 276 4.3 7.0 0.00 0.00 0.00 32 1011.9
20260505182956 55 322 7.0 7.8 0.00 0.00 0.00 33 1011.9
20260505182453 56 346 2.6 5.2 0.00 0.00 0.00 31 1011.9
20260505181949 55 247 5.2 7.8 0.00 0.00 0.00 31 1012.0
20260505181447 56 291 3.5 5.2 0.00 0.00 0.00 31 1011.9
20260505180944 56 198 7.8 9.6 0.00 0.00 0.00 32 1012.0
20260505180440 56 280 5.2 6.1 0.00 0.00 0.00 32 1012.0
20260505175937 55 323 3.5 5.2 0.00 0.00 0.00 32 1011.9
20260505175433 55 218 5.2 6.1 0.00 0.00 0.00 31 1011.9
20260505174930 55 259 5.2 6.1 0.00 0.00 0.00 31 1012.1
20260505174427 55 289 3.5 6.1 0.00 0.00 0.00 32 1012.0
20260505173923 54 317 7.8 7.8 0.00 0.00 0.00 32 1012.1
20260505173420 55 303 7.8 8.7 0.00 0.00 0.00 32 1012.0
20260505172917 54 329 0.9 0.9 0.00 0.00 0.00 32 1012.2
20260505172415 53 315 1.7 2.6 0.00 0.00 0.00 33 1012.2
20260505171914 53 296 5.2 7.0 0.00 0.00 0.00 32 1012.1
20260505171411 54 316 9.6 9.6 0.00 0.00 0.00 33 1012.1
20260505170908 53 319 5.2 6.1 0.00 0.00 0.00 33 1012.3
20260505170405 53 336 7.8 9.6 0.00 0.00 0.00 33 1012.1
20260505165900 53 296 7.8 9.6 0.00 0.00 0.00 33 1011.7
20260505165356 54 287 5.2 7.0 0.00 0.00 0.00 33 1011.8
20260505164852 54 332 7.8 8.7 0.00 0.00 0.00 33 1012.0
20260505164348 54 12 3.5 5.2 0.00 0.00 0.00 31 1011.8
20260505163847 54 286 3.5 5.2 0.00 0.00 0.00 32 1012.0
20260505163346 53 317 5.2 7.0 0.00 0.00 0.00 32 1011.8
20260505162844 53 344 2.6 5.2 0.00 0.00 0.00 32 1011.8
20260505162339 53 315 4.3 5.2 0.00 0.00 0.00 33 1012.0
20260505161837 53 302 7.8 8.7 0.00 0.00 0.00 32 1012.0
20260505161334 53 328 5.2 7.8 0.00 0.00 0.00 32 1012.0
20260505160831 53 318 7.0 9.6 0.00 0.00 0.00 32 1011.9
20260505160329 53 303 3.5 5.2 0.00 0.00 0.00 32 1012.0
20260505153308 53 354 3.5 5.2 0.00 0.00 0.00 32 1011.5
20260505152805 52 316 1.7 3.5 0.00 0.00 0.00 32 1011.2
20260505152304 52 347 5.2 7.0 0.00 0.00 0.00 33 1011.5
20260505151755 52 311 5.2 6.1 0.00 0.00 0.00 32 1011.5
20260505151253 52 335 7.0 7.8 0.00 0.00 0.00 32 1011.4
20260505150750 53 327 3.5 3.5 0.00 0.00 0.00 32 1011.4
20260505150247 52 328 5.2 7.0 0.00 0.00 0.00 32 1011.4
20260505140217 51 342 3.5 5.2 0.00 0.00 0.00 40 1011.3
20260505130141 50 307 3.5 3.5 0.00 0.00 0.00 46 1011.9
20260505124630 49 323 1.7 2.6 0.00 0.00 0.00 51 1012.5
20260505124127 48 285 0.9 1.7 0.00 0.00 0.00 50 1012.4
20260505123623 48 294 3.5 3.5 0.00 0.00 0.00 51 1012.3
20260505123120 49 254 0.0 0.9 0.00 0.00 0.00 49 1012.1
20260505122617 49 270 1.7 2.6 0.00 0.00 0.00 49 1012.1
20260505122114 49 347 0.9 1.7 0.00 0.00 0.00 48 1012.0
20260505121610 49 317 0.0 0.0 0.00 0.00 0.00 48 1012.0
20260505121107 48 300 1.7 1.7 0.00 0.00 0.00 49 1011.8
20260505120603 48 326 0.9 0.9 0.00 0.00 0.00 49 1011.7
20260505120059 48 280 0.9 0.9 0.00 0.00 0.00 48 1011.7
20260505115554 48 304 0.9 0.9 0.00 0.00 0.00 48 1011.7
20260505115051 48 309 0.0 0.9 0.00 0.00 0.00 49 1011.5
20260505114548 47 321 0.0 0.0 0.00 0.00 0.00 49 1011.4
20260505114044 47 335 0.0 0.0 0.00 0.00 0.00 51 1011.1
20260505113541 47 350 0.9 0.9 0.00 0.00 0.00 51 1010.9
20260505113037 47 321 1.7 2.6 0.00 0.00 0.00 50 1010.9
20260505112529 47 328 0.9 0.9 0.00 0.00 0.00 50 1011.1
20260505112027 47 319 0.9 0.9 0.00 0.00 0.00 50 1011.0
20260505111525 47 299 1.7 2.6 0.00 0.00 0.00 50 1010.9
20260505111022 47 319 0.9 0.9 0.00 0.00 0.00 50 1010.5
20260505110519 47 330 0.9 0.9 0.00 0.00 0.00 50 1010.3
20260505101951 49 326 2.6 3.5 0.00 0.00 0.00 44 1009.4
20260505101449 49 351 3.5 5.2 0.00 0.00 0.00 44 1009.6
20260505100945 49 333 3.5 3.5 0.00 0.00 0.00 43 1009.3
20260505100443 49 319 5.2 6.1 0.00 0.00 0.00 43 1008.8
20260505095939 49 328 3.5 3.5 0.00 0.00 0.00 43 1008.8
20260505095436 49 352 3.5 3.5 0.00 0.00 0.00 42 1008.8
20260505094932 49 355 6.1 7.8 0.00 0.00 0.00 42 1009.2
20260505094429 50 350 2.6 2.6 0.00 0.00 0.00 42 1009.0
20260505093925 50 337 3.5 3.5 0.00 0.00 0.00 42 1009.2
20260505093422 50 7 3.5 5.2 0.00 0.00 0.00 42 1009.3
20260505092919 50 69 3.5 5.2 0.00 0.00 0.00 42 1009.9
20260505092417 50 333 7.0 8.7 0.00 0.00 0.00 41 1009.9
20260505091914 50 298 10.4 13.0 0.00 0.00 0.00 41 1010.0
20260505091412 50 351 4.3 5.2 0.00 0.00 0.00 41 1009.6
20260505090909 50 276 5.2 7.0 0.00 0.00 0.00 41 1009.5
20260505090408 50 346 5.2 7.0 0.00 0.00 0.00 43 1009.1
20260505085904 50 9 3.5 5.2 0.00 0.00 0.00 45 1009.1
20260505085402 50 320 5.2 7.0 0.00 0.00 0.00 45 1008.8